731  
ASUS42 KCAE 011110  
RWRCAE  
REGIONAL WEATHER ROUNDUP  
NATIONAL WEATHER SERVICE COLUMBIA SC  
600 AM EST FRI MAR 01 2024  
 
NOTE: "FAIR" INDICATES FEW OR NO CLOUDS BELOW 12,000 FEET WITH NO  
SIGNIFICANT WEATHER AND/OR S TO VISIBILITY
.  
 
NOT ALL STATIONS ARE QUALITY CONTROLLED BY THE NATIONAL  
WEATHER SERVICE. USE DATA WITH CAUTION...ESPECIALLY  
DEWPOINT OBSERVATIONS.  
 
SCZ001>059-115-116-135>137-GAZ040-063>065-077-011200-   
..UPSTATE SOUTH CAROLINA
 
 
 
CITY SKY/WX TMP DP RH WIND PRES REMARKS
 
ANDERSON LGT RAIN 45 28 51 NE7 30.40R  
LIBERTY LGT RAIN 41 37 84 NE5 30.40R  
SPARTANBURG MOCLDY 41 27 56 NE3 30.43R  
CLEMSON LGT RAIN 43 31 62 N5 30.41R  
GREENVILLE CLOUDY 44 28 53 NE7 30.42R  
GREENWOOD CLOUDY 43 30 60 NE6 30.41S  
GREER CLOUDY 41 30 65 NE5 30.42R  
ROCK HILL CLOUDY 44 27 51 CALM 30.44R  
CHESTER MOCLDY 41 30 65 NE5 30.44R  
LAURENS CLOUDY 43 32 65 NE6 30.42R  
 
   
..CENTRAL SOUTH CAROLINA
 
 
 
CITY SKY/WX TMP DP RH WIND PRES REMARKS
 
COLUMBIA APT CLOUDY 48 27 44 NE8 30.39S  
COLUMBIA OWENS CLOUDY 48 26 42 VRB6 30.40S  
MCENTIRE ANGB CLOUDY 48 26 41 NE8 30.37S  
ORANGEBURG LGT RAIN 50 31 48 NE7 30.37F  
SUMTER SHAW CLOUDY 47 28 47 E10 30.39R  
NEWBERRY CLOUDY 43 30 61 CALM 30.45  
AIKEN CLOUDY 45 31 56 NE9 30.39R  
BARNWELL DRIZZLE 46 34 61 NE7 30.36R  
MANNING CLOUDY 46 32 57 E5 30.39F  
CAMDEN CLOUDY 45 28 53 NE5 30.42F  
LANCASTER CLOUDY 43 28 56 E7 30.42S  
WINNSBORO CLOUDY 43 32 65 NE7 30.41R  
 
   
..EASTERN AND COASTAL SOUTH CAROLINA
 
 
 
CITY SKY/WX TMP DP RH WIND PRES REMARKS
 
MYRTLE BEACH CLOUDY 51 38 60 E8 30.43F  
N MYRTLE BCH CLOUDY 50 35 56 NE12 30.43S  
CONWAY CLOUDY 46 34 61 NE7 30.43F  
MARION MOCLDY 45 32 61 E8 30.45S  
HARTSVILLE CLOUDY 45 28 53 E8 30.42F  
FLORENCE MOCLDY 46 31 55 E8 30.43F  
DARLINGTON CLOUDY 45 33 63 NE7 30.45R  
CHARLESTON APT LGT RAIN 51 38 60 NE10 30.38F  
MOUNT PLEASANT CLOUDY 52 45 76 VRB6G13 30.38F  
WALTERBORO LGT RAIN 46 36 66 E9 30.36F  
BEAUFORT CLOUDY 50 41 71 NE9 30.34F  
 
   
..EASTERN GEORGIA
 
 
 
CITY SKY/WX TMP DP RH WIND PRES REMARKS
 
AUGUSTA BUSH F LGT RAIN 45 36 70 NE5 30.36R  
AUGUSTA DANIEL LGT RAIN 44 33 65 E10 30.36S  
THOMSON LGT RAIN 42 37 80 NE6 30.36R  
WASHINGTON RAIN 41 37 86 N5 30.37R  
CLAXTON CLOUDY 51 32 48 E10 30.32R  
SYLVANIA CLOUDY 47 37 68 E8 30.33F  
STATESBORO CLOUDY 47 36 65 E6 30.32F  
SAVANNAH CLOUDY 52 39 61 NE13 30.32F  
 
   
..SOUTHERN NORTH CAROLINA
 
 
 
CITY SKY/WX TMP DP RH WIND PRES REMARKS
 
CHARLOTTE CLOUDY 45 23 42 E8 30.43S  
MONROE CLOUDY 44 28 53 NE6 30.43R  
WADESBORO CLOUDY 40 34 77 N3 30.46R  
ROCKINGHAM CLOUDY 45 26 47 E6 30.45S  
RUTHERFORDTON CLOUDY 41 28 60 CALM 30.44R  
ASHEVILLE CLOUDY 40 26 57 SW5 30.39R  
 

 
 
 
CLICK HERE TO GO TO PREVIOUS BULLETINS.

The Nexlab SC Page
The Nexlab GA Page Main Text Page